This is the latest recevied weather packets stored in our database for station/object DL0BB-10. If no packets are shown the sender has not sent any weather packets the latest 10 day(s).
| Time | Temp. | Humidity | Pressure | Rain* | Wind** | Luminosity | Snow |
|---|---|---|---|---|---|---|---|
| 1787728469 | 23.89° C | 38% | 1017.7 hPa | - | - | - | - |
| 1787727569 | 24.44° C | 38% | 1017.5 hPa | - | - | - | - |
| 1787726669 | 24.44° C | 37% | 1017.5 hPa | - | - | - | - |
| 1787725769 | 23.33° C | 39% | 1017.5 hPa | - | - | - | - |
| 1787724869 | 23.89° C | 39% | 1017.6 hPa | - | - | - | - |
| 1787723969 | 24.44° C | 38% | 1017.5 hPa | - | - | - | - |
| 1787723069 | 24.44° C | 37% | 1017.1 hPa | - | - | - | - |
| 1787722169 | 23.33° C | 39% | 1017.1 hPa | - | - | - | - |
| 1787721269 | 23.89° C | 39% | 1017 hPa | - | - | - | - |
| 1787720368 | 24.44° C | 38% | 1016.9 hPa | - | - | - | - |
| 1787719468 | 24.44° C | 37% | 1017 hPa | - | - | - | - |
| 1787718568 | 23.89° C | 39% | 1017 hPa | - | - | - | - |
| 1787717668 | 23.89° C | 38% | 1017 hPa | - | - | - | - |
| 1787716768 | 24.44° C | 37% | 1016.9 hPa | - | - | - | - |
| 1787715868 | 25° C | 37% | 1016.7 hPa | - | - | - | - |
| 1787714968 | 23.89° C | 39% | 1016.8 hPa | - | - | - | - |
| 1787714068 | 23.89° C | 38% | 1016.6 hPa | - | - | - | - |
| 1787713168 | 24.44° C | 38% | 1016.5 hPa | - | - | - | - |
| 1787712271 | 25° C | 37% | 1016.6 hPa | - | - | - | - |
| 1787711371 | 23.89° C | 39% | 1016.6 hPa | - | - | - | - |
| 1787710471 | 23.89° C | 38% | 1016.7 hPa | - | - | - | - |
| 1787709571 | 24.44° C | 37% | 1016.6 hPa | - | - | - | - |
| 1787708671 | 25° C | 37% | 1016.5 hPa | - | - | - | - |
| 1787707770 | 23.89° C | 39% | 1016.6 hPa | - | - | - | - |
| 1787706870 | 23.89° C | 38% | 1016.2 hPa | - | - | - | - |
* Rain since midnight (hover to see other rain measurements)
** Current wind speed in m/s (hover to see current wind gust speed)